Location: DARK SKY Beskydy - Park tmavé oblohy, www.darkskybeskydy.cz
(49.4926°N, 18.5016°E)
Time: 14:37:14
(UTC+01:00)

Vanguard 1 - Pass Details

Date: 13 November 2025
Orbit: 650 x 3821 km, 34.2° (Epoch: 07 December)

Event Time Altitude Azimuth Distance (km) Brightness Sun altitude
Rises 19:53:27 0° 261° (W) 7,746 15.4 -36.7°
Reaches altitude 10° 19:58:47 10° 256° (WSW) 6,864 14.9 -37.6°
Maximum altitude 20:20:27 50° 191° (SSW) 4,133 12.9 -40.9°
Enters shadow 20:23:56 47° 168° (SSE) 4,070 12.8 -41.4°
